User: anonymous   Login
Location: Piolenc
(44.1794°N, 4.7641°E)
Time: 18:05:31
(UTC+00:00)
Language:

Cosmos 1634 Rocket - Orbit

View from above orbital plane
View from above orbital plane
View from above satellite
View from above satellite

Ground track
Ground track

The orbit data is extracted from the following two-line orbital elements,

1 15598U 85022B   21105.20688932 -.00000025  00000-0 -41479-4 0  9990
2 15598  82.9363 147.9567 0022764 155.9787 268.2263 13.76593199812804
Epoch (UTC): 15 April 2021 04:57:55
Eccentricity: 0.0022764
inclination: 82.9363°
perigee height: 959 km
apogee height: 993 km
right ascension of ascending node: 147.9567°
argument of perigee: 155.9787°
revolutions per day: 13.76593199
mean anomaly at epoch: 268.2263°
orbit number at epoch: 81280

The dashed part of the orbit path shows where the satellite is in the earth's shadow,  

DLR